Other Public Products
Issued by NWS Charleston, SC

Home | Current Version | Previous Version | Text Only | Print | Product List | Glossary On
Versions: 1 2 3 4 5 6 7 8 9 10 11 12 13 14 15 16 17 18 19 20 21 22 23 24 25 26 27 28 29 30 31 32 33 34 35 36 37 38 39 40 41 42 43 44 45 46 47 48 49 50
000
FPUS82 KCHS 300227
OPUCHS

TEST...KCHS/KSAV Gateway Observations...TEST
National Weather Service Charleston SC
1000 PM EDT SAT APR 29 2017

NOTE: "fair" indicates few or no clouds below 12,000 feet with no
significant weather and/or obstructions to visibility.

SCZ050-WAZ558-NCZ071-TXZ119-213-PAZ071-DCZ001-FLZ074-172-MI076-
NYZ176-178-MAZ016-IL014-TNZ027-NJZ106-GAZ044-MD014-300300-

...Gateway Observations for Charleston International...

CITY           SKY/WX    TMP DP  RH WIND       PRES   REMARKS
Chas Airport   PTCLDY    75  70  84 S15       30.19R
Seattle        LGT RAIN  50  45  83 W8        30.13S
Charlotte      CLOUDY    76  67  73 S9        30.15S
Dallas DFW     CLOUDY    58  51  78 NW20      29.70R
Dallas Love    TSTM      57  53  86 NW16      29.70R
Philladelphia  CLOUDY    74  62  66 S5        30.08R
Wash National  MOCLDY    78  72  81 S9        30.07R
Baltimore      PTCLDY    75  68  78 CALM      30.06R
Miami          MOCLDY    81  71  71 E17       30.11R
Detroit        CLOUDY    47  30  51 NE9       30.22R
Newark         MOCLDY    77  57  50 NW16      30.08R
Laguardia      MOCLDY    76  56  49 NW14G23   30.07R
J F K          MOCLDY    78  58  49 N15       30.08R
Boston Logan   MOCLDY    70  46  42 W14       29.98R
Ft. Lauderdale MOCLDY    79  72  79 E18       30.10R
Chicago O`Hare HVY RAIN  44  41  89 NE24G36   29.99F FOG
Chicago Midway RAIN      46  44  93 NE31G45   29.96F FOG
Houston Bush   CLOUDY    81  73  76 S16G28    29.63R
Houston Hobby  CLOUDY    79  74  84 S17G28    29.61R
Nashville      PTCLDY    78  65  63 S9        29.97R
Atlanta        MOCLDY    79  68  69 SE6       30.10R

$$

GAZ044-118-TXZ119-213-NCZ071-DCZ001-MDZ014-506-PAZ021-071-NJZ106-
NYZ176-178-MAZ106-OHZ011-021-055-MIZ076-KYZ091-ILZ014-INZ047-
MNZ060-ONZ431-300300-

...Gateway Observations for Savannah International...

CITY           SKY/WX    TMP DP  RH WIND       PRES   REMARKS
Savannah Arpt  PTCLDY    75  69  81 SE9       30.17R
Atlanta        MOCLDY    79  68  69 SE6       30.10R
Charlotte      CLOUDY    76  67  73 S9        30.15S
Dallas DFW     CLOUDY    58  51  78 NW20      29.70R
Houston Bush   CLOUDY    81  73  76 S16G28    29.63R
Wash National  MOCLDY    78  72  81 S9        30.07R
Wash Dulles    PTCLDY    79  68  69 S5        30.07S
Baltimore      PTCLDY    75  68  78 CALM      30.06R
Philadelphia   CLOUDY    74  62  66 S5        30.08R
Newark         MOCLDY    77  57  50 NW16      30.08R
Laguardia      MOCLDY    76  56  49 NW14G23   30.07R
J F K          MOCLDY    78  58  49 N15       30.08R
Boston         MOCLDY    70  46  42 W14       29.98R
Pittsburg      CLOUDY    60  59  96 N9        30.13S
Akron          CLOUDY    51  46  83 NE9       30.15S
Cleveland      CLOUDY    49  40  71 N10       30.21R
Cincinnati     CLOUDY    73  67  81 E7        29.97R
Columbus       CLOUDY    60  59  97 NE15      30.04R
Detroit        CLOUDY    47  30  51 NE9       30.22R
Chicago O`Hare HVY RAIN  44  41  89 NE24G36   29.99F FOG
Minneapolis    CLOUDY    52  23  32 NE12      30.18R
Indianapolis   CLOUDY    59  57  93 NE14      29.90F THUNDER
Toronto Canada MOCLDY    46  27  46 N13       30.26S

$$




USA.gov is the U.S. government's official web portal to all federal, state and local government web resources and services.